Regional Weather Roundup
Issued by NWS

Home | Current Version | Previous Version | Text Only | Print | Product List | Glossary Off
Versions: 1 2 3 4 5 6 7 8 9 10 11 12 13 14 15 16 17 18 19 20 21 22 23 24 25 26 27 28 29 30 31 32 33 34 35 36 37 38 39 40 41 42 43 44 45 46 47 48 49 50

000
ASUS43 KBIS 111810
RWRND

NORTH DAKOTA REGIONAL WEATHER ROUNDUP
NATIONAL WEATHER SERVICE BISMARCK ND
100 PM CDT FRI JUL 11 2014

NOTE: "FAIR" INDICATES FEW OR NO CLOUDS BELOW 12,000 FEET WITH NO
SIGNIFICANT WEATHER AND/OR OBSTRUCTIONS TO VISIBILITY.


NDZ001>003-009>011-017-111900-
NORTHWEST NORTH DAKOTA

CITY           SKY/WX    TMP DP  RH WIND       PRES   REMARKS
WILLISTON      MOSUNNY   75  53  46 N13       30.07S
6HR MIN TEMP:  62; 6HR MAX TEMP:  76;

MINOT          MOSUNNY   73  53  49 NW16G24   30.02R
MINOT AFB      MOSUNNY   74  53  48 NW14G24   30.02R
$$

NDZ018>021-031>035-040>046-111900-
SOUTHWEST NORTH DAKOTA

CITY           SKY/WX    TMP DP  RH WIND       PRES   REMARKS
BISMARCK       LGT RAIN  80  52  37 N10       30.02R
6HR MIN TEMP:  62; 6HR MAX TEMP:  82; 6HR PCP: TRACE;

DICKINSON      PTSUNNY   76  55  48 N8        30.07R
GARRISON         N/A     77  61  57 N13       30.04R
6HR MIN TEMP:  65; 6HR MAX TEMP:  77;

HETTINGER ARPT SUNNY     81  56  42 NE20      30.07R
$$

NDZ004>008-012>016-024-026-027-054-111900-
NORTHEAST NORTH DAKOTA

CITY           SKY/WX    TMP DP  RH WIND       PRES   REMARKS
GRAND FORKS    MOSUNNY   81  66  60 NW9       29.89R
GRND FRKS AFB  SUNNY     82  65  58 NW13      29.91R
DEVILS LAKE    MOSUNNY   79  54  41 N9        29.95S
$$

NDZ022-023-025-028>030-036>039-047>053-111900-
SOUTHEAST NORTH DAKOTA

CITY           SKY/WX    TMP DP  RH WIND       PRES   REMARKS
FARGO          MOSUNNY   84  71  65 NW12      29.89R
6HR MIN TEMP:  70; 6HR MAX TEMP:  84; 6HR PCP: TRACE;

JAMESTOWN      MOSUNNY   81  63  54 N9        29.96R
$$



USA.gov is the U.S. government's official web portal to all federal, state and local government web resources and services.